Regional Weather Roundup
Issued by NWS Huntsville, AL

Home | Current Version | Previous Version | Text Only | Print | Product List | Glossary On
Versions: 1 2 3 4 5 6 7 8 9 10 11 12 13 14 15 16 17 18 19 20 21 22 23 24 25 26 27 28 29 30 31 32 33 34 35 36 37 38 39 40 41 42 43 44 45 46 47 48 49 50
000
ASUS44 KHUN 251010
RWRHUN

WEATHER ROUNDUP FOR THE TENNESSEE VALLEY
NATIONAL WEATHER SERVICE HUNTSVILLE AL
500 AM CDT MON JUL 25 2016

ALZ001>004-251100-
NORTHWEST ALABAMA

CITY           SKY/WX    TMP DP  RH WIND       PRES   REMARKS
COURTLAND HCN    N/A     72 N/A N/A CALM        N/A
RUSSELLVILLE     N/A     70 N/A N/A MISG        N/A
SHOALS AIRPORT CLEAR     73  71  93 CALM      30.04R
SHOALS TVA RES   N/A     72 N/A N/A MISG        N/A
$$

ALZ005>007-016-251100-
NORTH CENTRAL ALABAMA

CITY           SKY/WX    TMP DP  RH WIND       PRES   REMARKS
CULLMAN AG STN   N/A     70 N/A N/A CALM        N/A
DECATUR AP     CLEAR     74  73  97 CALM      30.04R
HUNTSVILLE AP  CLEAR     76  71  85 SE5       30.04R
MERIDIANVILLE  CLEAR     72  66  83 CALM      30.04S
REDSTONE ARSN  CLEAR     73  72  95 SW2       30.04R
VINEMONT AP    FAIR      71  70  98 CALM      30.08R
$$

ALZ008>010-251100-
NORTHEAST ALABAMA

CITY           SKY/WX    TMP DP  RH WIND       PRES   REMARKS
ALBERTVILLE    CLEAR     73  73 100 SE3       30.06S
FORT PAYNE     CLEAR     72  68  88 CALM      30.06R
SCOTTSBORO AP  CLEAR     72  72 100 CALM      30.06R
SCOTTSBORO HCN   N/A     70 N/A N/A MISG        N/A
VALLEY HEAD      N/A     70 N/A N/A MISG        N/A
$$

TNZ076-096-097-251100-
SOUTHEASTERN MIDDLE TENNESSEE

CITY           SKY/WX    TMP DP  RH WIND       PRES   REMARKS
TULLAHOMA      CLEAR     72  70  94 CALM      30.07S
WINCHESTER     CLEAR     72  72 100 S3        30.07R
$$

...SURROUNDING SITES...

CITY           SKY/WX    TMP DP  RH WIND       PRES   REMARKS
ATLANTA        PTCLDY    77  70  79 CALM      30.07R
ANNISTON       CLEAR     75  72  90 CALM      30.06R
BIRMINGHAM     CLEAR     76  73  91 CALM      30.08R
CHATTANOOGA    PTCLDY    75  72  90 CALM      30.05R
DALTON         CLEAR     72  72 100 CALM      30.05S
GADSDEN        CLEAR     73  73 100 CALM      30.06R
GOLDEN TRNGL   CLEAR     73  68  83 S3        30.01R
HALEYVILLE     FAIR      72  71  97 CALM      30.07R
JACKSON TN     CLEAR     74  74 100 CALM      30.00R
MEMPHIS        CLEAR     80  75  84 SE6       29.99R
NASHVILLE      MOCLDY    76  73  91 S3        30.03S
OXFORD MS      FAIR      73  72  94 CALM      30.04R
ROME           CLEAR     74  72  93 CALM      30.04S
SAVANNAH       CLEAR     73  73 100 CALM      30.01R
TUPELO         CLEAR     77  74  90 CALM      30.02R
TUSCALOOSA     CLEAR     74  74 100 CALM      30.03R
$$

...GULF COAST WEATHER...

CITY           SKY/WX    TMP DP  RH WIND       PRES   REMARKS
GULFPORT       MOCLDY    78  76  93 N5        29.94R
PASCAGOULA     LGT RAIN  77  77 100 CALM      29.96R
MOBILE         CLEAR     76  75  97 NE7       29.98R
GULF SHORES    LGT RAIN  80  77  90 S8        29.96R
PENSACOLA      MOCLDY    84  73  69 SE8       29.96R HX  90
DESTIN         PTCLDY    86  75  69 SE8       29.97R HX  95
PANAMA CITY    CLEAR     78  75  91 E6        29.98R
APPALACHICOLA  PTCLDY    82  76  81 SE7       29.98R
$$




USA.gov is the U.S. government's official web portal to all federal, state and local government web resources and services.